This is the latest recevied weather packets stored in our database for station/object SV7RNH. If no packets are shown the sender has not sent any weather packets the latest 10 day(s).
| Time | Temp. | Humidity | Pressure | Rain* | Wind** | Luminosity | Snow |
|---|---|---|---|---|---|---|---|
| 1777557904 | 15.56° C | 45% | 1016.4 hPa | 0 mm | - | - | - |
| 1777557603 | 16.67° C | 44% | 1016.2 hPa | 0 mm | - | - | - |
| 1777557303 | 16.67° C | 44% | 1016.1 hPa | 0 mm | - | - | - |
| 1777557004 | 17.78° C | 42% | 1015.9 hPa | 0 mm | - | - | - |
| 1777556704 | 17.78° C | 42% | 1016 hPa | 0 mm | - | - | - |
| 1777556404 | 18.33° C | 41% | 1016 hPa | 0 mm | - | - | - |
| 1777556103 | 19.44° C | 39% | 1016 hPa | 0 mm | - | - | - |
| 1777555804 | 19.44° C | 37% | 1016.1 hPa | 0 mm | - | - | - |
| 1777555504 | 20° C | 36% | 1015.9 hPa | 0 mm | - | - | - |
| 1777555203 | 20.56° C | 34% | 1015.8 hPa | 0 mm | - | - | - |
| 1777554903 | 20.56° C | 34% | 1015.8 hPa | 0 mm | - | - | - |
| 1777554603 | 21.11° C | 34% | 1015.7 hPa | 0 mm | - | - | - |
| 1777554304 | 21.11° C | 34% | 1015.7 hPa | 0 mm | - | - | - |
| 1777554004 | 21.67° C | 33% | 1015.7 hPa | 0 mm | - | - | - |
| 1777553703 | 22.78° C | 31% | 1015.8 hPa | 0 mm | - | - | - |
| 1777553403 | 22.78° C | 31% | 1015.8 hPa | 0 mm | - | - | - |
| 1777553104 | 23.33° C | 29% | 1015.7 hPa | 0 mm | - | - | - |
| 1777552804 | 23.89° C | 29% | 1015.8 hPa | 0 mm | - | - | - |
| 1777552503 | 24.44° C | 28% | 1016 hPa | 0 mm | - | - | - |
| 1777552203 | 23.89° C | 28% | 1016 hPa | 0 mm | - | - | - |
| 1777551904 | 24.44° C | 26% | 1016 hPa | 0 mm | - | - | - |
| 1777551604 | 25° C | 26% | 1016 hPa | 0 mm | - | - | - |
| 1777551303 | 26.11° C | 23% | 1016 hPa | 0 mm | - | - | - |
| 1777551003 | 26.67° C | 21% | 1016 hPa | 0 mm | - | - | - |
| 1777550704 | 26.11° C | 18% | 1016.2 hPa | 0 mm | - | - | - |
* Rain latest hour (hover to see other rain measurements)
** Current wind speed in m/s (hover to see current wind gust speed)